Weather History for Newark Heath, OH

Change the Weather History Date:

Tuesday, December 11, 2012

  Actual Average Record
Temperature  
Mean Temperature 32 °F -  
Max Temperature 37 °F 41 °F 64 °F (2007)
Min Temperature 27 °F 25 °F -13 °F (1958)
Degree Days  
Heating Degree Days 32    
Moisture  
Dew Point 29 °F    
Average Humidity 80    
Maximum Humidity 93    
Minimum Humidity 59    
Precipitation  
Precipitation 0.00 in - - ()
Sea Level Pressure  
Sea Level Pressure 30.05 in    
Wind  
Wind Speed 7 mph (WSW)    
Max Wind Speed 12 mph    
Max Gust Speed -    
Visibility 8 miles    
Events Snow    
Averages and records for this station are not official NWS values.
T = Trace of Precipitation, MM = Missing Value Source: NWS Daily Summary

Daily Weather History Graph

Daily Weather History Graph

Search for Another Location

Airport:

Trip Planner

Search our weather history database for the weather conditions in past years. The results will help you decide how hot, cold, wet, or windy it might be!

Date:

Astronomy

Dec. 11, 2012 Rise Set
Actual Time 7:42 AM EST 5:04 PM EST
Civil Twilight 7:11 AM EST 5:35 PM EST
Nautical Twilight 6:37 AM EST 6:09 PM EST
Astronomical Twilight 6:04 AM EST 6:42 PM EST
Moon 5:35 AM EST (12/11) 3:42 PM EST (12/11)
Length of Visible Light 10h 23m
Length of Day
9h 22m
Waning Crescent, 4% of the Moon is Illuminated
Dec 11
Waning Crescent
Dec 13
New
Dec 20
First Quarter
Dec 28
Full
Jan 4
Last Quarter

Hourly Weather History & Observations

Time (EST) Temp. Windchill Dew Point Humidity Pressure Visibility Wind Dir Wind Speed Gust Speed Precip Events Conditions
12:54 AM 35.1 °F 27.4 °F 30.0 °F 82% 29.90 in 9.0 mi West 10.4 mph - N/A   Overcast
1:54 AM 35.1 °F 28.6 °F 30.0 °F 82% 29.91 in 9.0 mi West 8.1 mph - N/A   Overcast
2:54 AM 35.1 °F 28.6 °F 30.0 °F 82% 29.93 in 8.0 mi West 8.1 mph - N/A   Overcast
3:27 AM 35.6 °F 29.9 °F 30.2 °F 81% 29.91 in 9.0 mi West 6.9 mph - N/A   Overcast
3:54 AM 35.1 °F 29.3 °F 30.0 °F 82% 29.94 in 8.0 mi West 6.9 mph - N/A   Overcast
4:28 AM 35.6 °F 29.9 °F 30.2 °F 81% 29.93 in 9.0 mi West 6.9 mph - N/A   Overcast
4:54 AM 35.1 °F 29.3 °F 30.0 °F 82% 29.95 in 10.0 mi West 6.9 mph - N/A   Overcast
5:30 AM 35.6 °F 29.9 °F 30.2 °F 81% 29.95 in 9.0 mi West 6.9 mph - N/A   Overcast
5:54 AM 35.1 °F 27.9 °F 30.0 °F 82% 29.99 in 7.0 mi WSW 9.2 mph - N/A   Overcast
6:15 AM 33.8 °F 27.7 °F 30.2 °F 87% 29.96 in 6.0 mi WSW 6.9 mph - N/A   Overcast
6:54 AM 35.1 °F 31.0 °F 32.0 °F 89% 29.99 in 8.0 mi WSW 4.6 mph - N/A   Overcast
7:09 AM 35.6 °F 31.7 °F 32.0 °F 87% 29.98 in 4.0 mi WSW 4.6 mph - N/A   Overcast
7:46 AM 35.6 °F 32.8 °F 32.0 °F 87% 29.99 in 8.0 mi West 3.5 mph - N/A   Overcast
7:54 AM 35.1 °F 32.2 °F 30.9 °F 85% 30.02 in 7.0 mi WSW 3.5 mph - N/A   Overcast
8:17 AM 35.6 °F 30.7 °F 32.0 °F 87% 30.01 in 2.5 mi SW 5.8 mph - N/A   Overcast
8:24 AM 33.8 °F 29.6 °F 30.2 °F 87% 30.01 in 0.8 mi SW 4.6 mph - 0.00 in Snow Light Snow
8:30 AM 33.8 °F 27.7 °F 30.2 °F 87% 30.02 in 1.0 mi SW 6.9 mph - 0.01 in Snow Light Snow
8:33 AM 33.8 °F 28.6 °F 30.2 °F 87% 30.02 in 2.0 mi SW 5.8 mph - 0.01 in Snow Light Snow
8:41 AM 35.6 °F 31.7 °F 32.0 °F 87% 30.02 in 4.0 mi WSW 4.6 mph - 0.01 in   Overcast
8:46 AM 33.8 °F 28.6 °F 32.0 °F 93% 30.02 in 2.0 mi WSW 5.8 mph - 0.01 in Snow Light Snow
9:01 AM 35.6 °F 29.9 °F 30.2 °F 81% 30.03 in 5.0 mi WSW 6.9 mph - 0.00 in   Overcast
9:38 AM 35.6 °F 30.7 °F 30.2 °F 81% 30.04 in 6.0 mi WSW 5.8 mph - 0.00 in   Overcast
9:54 AM 36.0 °F 30.3 °F 30.9 °F 82% 30.08 in 6.0 mi West 6.9 mph - 0.00 in   Haze
10:10 AM 35.6 °F 30.7 °F 30.2 °F 81% 30.06 in 7.0 mi West 5.8 mph - N/A   Overcast
10:41 AM 37.4 °F 32.1 °F 30.2 °F 75% 30.07 in 9.0 mi West 6.9 mph - N/A   Overcast
10:54 AM 37.0 °F 29.3 °F 28.9 °F 73% 30.10 in 10.0 mi West 11.5 mph - N/A   Overcast
11:54 AM 37.0 °F 31.0 °F 30.0 °F 76% 30.09 in 10.0 mi WSW 8.1 mph - N/A   Overcast
12:54 PM 36.0 °F 29.0 °F 30.0 °F 79% 30.11 in 9.0 mi West 9.2 mph - N/A   Overcast
1:54 PM 36.0 °F 28.5 °F 28.9 °F 76% 30.11 in 10.0 mi SW 10.4 mph - 0.00 in   Overcast
2:54 PM 35.1 °F 28.6 °F 28.9 °F 78% 30.11 in 9.0 mi WSW 8.1 mph - N/A   Overcast
3:54 PM 36.0 °F 28.5 °F 27.0 °F 70% 30.13 in 10.0 mi WSW 10.4 mph - N/A   Overcast
4:54 PM 36.0 °F 29.0 °F 26.1 °F 67% 30.15 in 10.0 mi WSW 9.2 mph - N/A   Overcast
5:54 PM 35.1 °F 27.9 °F 21.9 °F 59% 30.16 in 10.0 mi SW 9.2 mph - N/A   Overcast
6:54 PM 35.1 °F 27.4 °F 24.1 °F 64% 30.19 in 10.0 mi WSW 10.4 mph - N/A   Overcast
7:54 PM 33.1 °F 28.7 °F 23.0 °F 66% 30.20 in 10.0 mi WSW 4.6 mph - N/A   Partly Cloudy
8:54 PM 30.9 °F - 23.0 °F 72% 30.22 in 10.0 mi Calm Calm - N/A   Clear
9:54 PM 28.0 °F - 21.9 °F 78% 30.23 in 10.0 mi Calm Calm - N/A   Clear
10:54 PM 28.9 °F 25.2 °F 23.0 °F 78% 30.24 in 10.0 mi SSW 3.5 mph - N/A   Clear
11:54 PM 27.0 °F - 23.0 °F 85% 30.26 in 7.0 mi Calm Calm - N/A   Clear